FW4679 Weather Reports


Display with metric or nautical units.
time (UTC)temp
F
wind
direction
speed
MPH
gust
MPH
rain 1hr
in
rain 24hr
in
rain mn
in
humidity
%
barometer
mb
20260508024549 49 71 0.0 2.0 0.00 0.00 0.00 55 1015.7
20260508023048 49 71 1.0 6.0 0.00 0.00 0.00 53 1015.5
20260508021549 49 53 2.0 5.0 0.00 0.00 0.00 54 1015.4
20260508020049 50 52 3.0 5.0 0.00 0.00 0.00 54 1015.4
20260508014548 51 51 2.0 4.0 0.00 0.00 0.00 53 1015.4
20260508013047 52 47 2.0 4.0 0.00 0.00 0.00 52 1015.0
20260508011547 52 47 1.0 3.0 0.00 0.00 0.00 51 1015.0
20260508010047 53 47 1.0 5.0 0.00 0.00 0.00 50 1015.0
20260508004551 53 360 0.0 3.0 0.00 0.00 0.00 48 1015.0
20260508003047 54 360 1.0 4.0 0.00 0.00 0.00 48 1014.8
20260508001544 54 324 0.0 6.0 0.00 0.00 0.00 47 1014.8
20260508000044 54 30 0.0 8.0 0.00 0.00 0.00 46 1014.6
20260507234552 55 346 1.0 6.0 0.00 0.00 0.00 45 1014.5
20260507233044 55 11 4.0 11.0 0.00 0.00 0.00 44 1014.4
20260507231549 55 51 3.0 10.0 0.00 0.00 0.00 45 1014.3
20260507230046 57 55 9.0 14.0 0.00 0.00 0.00 43 1014.3
20260507224544 58 33 5.0 11.0 0.00 0.00 0.00 42 1014.3
20260507223042 58 55 7.0 14.0 0.00 0.00 0.00 42 1014.2
20260507221542 59 67 7.0 15.0 0.00 0.00 0.00 43 1014.3
20260507220040 58 360 5.0 12.0 0.00 0.00 0.00 43 1014.2
20260507214538 58 342 2.0 15.0 0.00 0.00 0.00 42 1014.2
20260507213038 58 341 3.0 14.0 0.00 0.00 0.00 43 1014.3
20260507211537 57 338 4.0 11.0 0.00 0.00 0.00 42 1014.5
20260507210036 58 338 3.0 12.0 0.00 0.00 0.00 42 1014.3
20260507204535 58 318 6.0 11.0 0.00 0.00 0.00 41 1014.4
20260507203041 57 346 7.0 15.0 0.00 0.00 0.00 42 1014.4
20260507201539 57 315 11.0 16.0 0.00 0.00 0.00 39 1014.4
20260507200045 58 308 9.0 17.0 0.00 0.00 0.00 40 1014.5
20260507194532 56 302 7.0 13.0 0.00 0.02 0.00 42 1014.6
20260507193034 56 332 7.0 15.0 0.00 0.02 0.00 41 1014.7
20260507191532 56 5 6.0 12.0 0.00 0.02 0.00 41 1014.7
20260507190130 56 308 9.0 14.0 0.00 0.02 0.00 41 1014.9
20260507184527 57 324 8.0 13.0 0.00 0.02 0.00 39 1015.0
20260507183035 56 349 8.0 15.0 0.00 0.02 0.00 41 1015.2
20260507181524 57 347 10.0 21.0 0.00 0.02 0.00 40 1015.3
20260507180035 57 345 5.0 16.0 0.00 0.02 0.00 41 1015.6
20260507174524 57 331 7.0 13.0 0.00 0.02 0.00 43 1015.7
20260507173019 56 9 0.0 4.0 0.00 0.02 0.00 45 1015.6
20260507171515 55 36 5.0 11.0 0.00 0.02 0.00 47 1016.0
20260507170016 53 321 7.0 12.0 0.00 0.02 0.00 46 1015.9
20260507164513 53 26 3.0 10.0 0.00 0.02 0.00 47 1016.1
20260507163013 54 273 5.0 10.0 0.00 0.02 0.00 47 1016.1
20260507161513 53 279 7.0 12.0 0.00 0.02 0.00 46 1016.5
20260507160009 53 306 3.0 12.0 0.00 0.04 0.00 48 1016.5
20260507154508 52 249 4.0 8.0 0.00 0.04 0.00 46 1016.7
20260507153010 52 324 4.0 13.0 0.00 0.04 0.00 47 1016.9
20260507151507 52 275 4.0 12.0 0.00 0.04 0.00 47 1017.0
20260507150006 52 323 3.0 11.0 0.00 0.07 0.00 49 1017.3
20260507144503 51 331 4.0 13.0 0.00 0.07 0.00 48 1017.3
20260507143002 51 21 4.0 10.0 0.00 0.07 0.00 49 1017.4
20260507141602 50 280 3.0 10.0 0.00 0.07 0.00 51 1017.4
20260507140058 49 11 2.0 12.0 0.00 0.07 0.00 55 1017.5
20260507134557 48 303 5.0 11.0 0.00 0.14 0.00 55 1017.6
20260507133056 48 292 3.0 10.0 0.00 0.14 0.00 63 1017.6
20260507131555 47 335 2.0 5.0 0.00 0.14 0.00 68 1017.6
20260507130047 46 19 1.0 6.0 0.00 0.14 0.00 69 1017.8
20260507124545 45 55 1.0 4.0 0.00 0.25 0.00 75 1017.6
20260507123044 44 355 1.0 4.0 0.00 0.25 0.00 75 1017.9
20260507121543 43 329 2.0 5.0 0.00 0.25 0.00 80 1017.8
20260507120043 42 346 0.0 4.0 0.00 0.25 0.00 83 1017.7
20260507114542 41 236 1.0 4.0 0.00 0.26 0.00 84 1017.7
20260507113041 40 222 2.0 4.0 0.00 0.26 0.00 86 1017.7
20260507111541 40 217 1.0 3.0 0.00 0.26 0.00 87 1017.4
20260507110052 38 227 1.0 3.0 0.00 0.26 0.00 86 1017.4
20260507104538 38 227 1.0 3.0 0.00 0.27 0.00 85 1017.4
20260507103036 38 227 1.0 3.0 0.00 0.27 0.00 84 1017.2
20260507101541 39 227 0.0 3.0 0.00 0.27 0.00 82 1017.0
20260507100037 39 227 0.0 3.0 0.00 0.27 0.00 81 1016.9
20260507094531 40 227 1.0 3.0 0.00 0.28 0.00 80 1016.8
20260507093028 40 227 1.0 4.0 0.00 0.28 0.00 79 1016.8
20260507091524 42 279 1.0 4.0 0.00 0.28 0.00 78 1016.9
20260507090034 42 292 1.0 4.0 0.00 0.28 0.00 76 1016.9
20260507084531 43 292 3.0 5.0 0.00 0.28 0.00 76 1017.0
20260507083021 43 329 2.0 5.0 0.00 0.28 0.00 76 1017.0
20260507081519 43 21 1.0 4.0 0.00 0.28 0.00 77 1016.9
20260507080016 44 344 1.0 4.0 0.00 0.28 0.00 77 1016.9
20260507074526 44 71 1.0 3.0 0.00 0.28 0.00 78 1016.9
20260507073014 44 355 2.0 4.0 0.00 0.28 0.00 79 1016.7
20260507071513 44 298 3.0 4.0 0.00 0.28 0.00 79 1017.0
20260507070013 44 283 2.0 6.0 0.00 0.28 0.00 80 1017.0
20260507064510 44 322 3.0 9.0 0.00 0.28 0.00 82 1016.7
20260507063010 45 325 3.0 8.0 0.00 0.28 0.00 84 1016.7
20260507061506 45 329 5.0 9.0 0.00 0.28 0.00 86 1016.5
20260507060004 45 333 5.0 11.0 0.00 0.28 0.00 87 1016.3
20260507054502 46 332 3.0 8.0 0.00 0.28 0.00 88 1016.3
20260507053005 46 355 2.0 9.0 0.00 0.28 0.00 89 1016.0
20260507051602 46 296 3.0 5.0 0.00 0.28 0.00 89 1016.2
20260507050101 46 234 0.0 1.0 0.00 0.28 0.00 89 1016.3
20260507044601 46 234 1.0 3.0 0.00 0.28 0.00 89 1016.3
20260507043059 46 234 0.0 3.0 0.00 0.28 0.00 88 1016.1
20260507041553 46 246 1.0 3.0 0.00 0.28 0.00 88 1015.8
20260507040052 46 246 1.0 4.0 0.00 0.28 0.00 88 1015.8
20260507034558 46 246 0.0 3.0 0.00 0.28 0.28 88 1015.8
20260507033051 46 246 0.0 2.0 0.00 0.28 0.28 87 1015.7
20260507031550 46 246 0.0 2.0 0.00 0.28 0.28 87 1016.1
20260507030050 46 246 0.0 2.0 0.00 0.28 0.28 87 1015.8